Hailey, ID

8:32 AM MST on February 23, 2018 (GMT -0700)
Friedman Memorial

Weather History for KSUN - September, 2013

Change the Weather History Date:

Friday, September 27, 2013

  Actual Average Record
Temperature  
Mean Temperature 42 °F -  
Max Temperature 51 °F 68 °F 82 °F (2001)
Min Temperature 32 °F 39 °F 28 °F (1996)
Degree Days  
Heating Degree Days 24    
Moisture  
Dew Point 30 °F    
Average Humidity 74    
Maximum Humidity 93    
Minimum Humidity 34    
Precipitation  
Precipitation 0.00 in - - ()
Sea Level Pressure  
Sea Level Pressure 30.01 in    
Wind  
Wind Speed 7 mph (NW)    
Max Wind Speed 13 mph    
Max Gust Speed -    
Visibility 10 miles    
Events      
Averages and records for this station are not official NWS values.
T = Trace of Precipitation, MM = Missing Value Source: NWS Daily Summary

Daily Weather History Graph

Daily Weather History Graph

Search for Another Location

Airport or City:

Trip Planner

Search our weather history database for the weather conditions in past years. The results will help you decide how hot, cold, wet, or windy it might be!

Date:

Astronomy

Sep. 27, 2013 Rise Set
Actual Time 7:30 AM MDT 7:24 PM MDT
Civil Twilight 7:01 AM MDT 7:53 PM MDT
Nautical Twilight 6:28 AM MDT 8:26 PM MDT
Astronomical Twilight 5:54 AM MDT 9:00 PM MDT
Moon 12:19 AM MDT (9/27) 3:15 PM MDT (9/27)
Length of Visible Light 12h 51m
Length of Day
11h 54m
Last Quarter, 44% of the Moon is Illuminated
Sep 27
Last Quarter
Oct 4
New
Oct 11
First Quarter
Oct 18
Full
Oct 26
Last Quarter

Hourly Weather History & Observations

Time (MDT) Temp. Windchill Dew Point Humidity Pressure Visibility Wind Dir Wind Speed Gust Speed Precip Events Conditions
12:15 AM 33.8 °F 27.0 °F 32.0 °F 93% 29.96 in 10.0 mi NNW 8.1 mph - N/A   Clear
12:35 AM 33.8 °F 27.7 °F 32.0 °F 93% 29.96 in 10.0 mi NW 6.9 mph - N/A   Clear
12:55 AM 33.8 °F 28.6 °F 32.0 °F 93% 29.96 in 10.0 mi NW 5.8 mph - N/A   Scattered Clouds
1:15 AM 35.6 °F 28.0 °F 32.0 °F 87% 29.96 in 10.0 mi NW 10.4 mph - N/A   Scattered Clouds
1:35 AM 35.6 °F 28.0 °F 32.0 °F 87% 29.95 in 10.0 mi WNW 10.4 mph - N/A   Overcast
1:55 AM 35.6 °F 27.5 °F 32.0 °F 87% 29.96 in 10.0 mi NW 11.5 mph - N/A   Mostly Cloudy
2:15 AM 35.6 °F 27.1 °F 32.0 °F 87% 29.96 in 10.0 mi NW 12.7 mph - N/A   Mostly Cloudy
2:35 AM 35.6 °F 28.0 °F 32.0 °F 87% 29.96 in 10.0 mi NW 10.4 mph - N/A   Scattered Clouds
2:55 AM 35.6 °F 29.9 °F 32.0 °F 87% 29.96 in 10.0 mi North 6.9 mph - N/A   Clear
3:15 AM 33.8 °F 28.6 °F 32.0 °F 93% 29.97 in 10.0 mi NNE 5.8 mph - N/A   Clear
3:35 AM 33.8 °F 29.6 °F 32.0 °F 93% 29.97 in 10.0 mi North 4.6 mph - N/A   Clear
3:55 AM 33.8 °F 30.8 °F 32.0 °F 93% 29.97 in 10.0 mi North 3.5 mph - N/A   Clear
4:15 AM 33.8 °F - 32.0 °F 93% 29.97 in 10.0 mi Calm Calm - N/A   Clear
4:35 AM 35.6 °F 27.5 °F 32.0 °F 87% 29.97 in 10.0 mi NW 11.5 mph - N/A   Clear
4:55 AM 33.8 °F 26.4 °F 32.0 °F 93% 29.97 in 10.0 mi NNW 9.2 mph - N/A   Clear
5:15 AM 33.8 °F 28.6 °F 32.0 °F 93% 29.98 in 10.0 mi North 5.8 mph - N/A   Clear
5:35 AM 32.0 °F 24.8 °F 30.2 °F 93% 29.97 in 10.0 mi NW 8.1 mph - N/A   Clear
5:55 AM 33.8 °F 27.0 °F 30.2 °F 87% 29.97 in 10.0 mi NW 8.1 mph - N/A   Clear
6:15 AM 33.8 °F 27.0 °F 30.2 °F 87% 29.97 in 10.0 mi NW 8.1 mph - N/A   Clear
6:35 AM 33.8 °F 27.0 °F 30.2 °F 87% 29.98 in 10.0 mi NW 8.1 mph - N/A   Clear
6:47 AM 35.6 °F 27.5 °F 28.4 °F 75% 29.99 in 10.0 mi NW 11.5 mph - N/A   Clear
6:55 AM 33.8 °F 29.6 °F 30.2 °F 87% 29.99 in 10.0 mi North 4.6 mph - N/A   Clear
7:47 AM 33.8 °F 28.6 °F 28.4 °F 81% 30.01 in 10.0 mi NW 5.8 mph - N/A   Partly Cloudy
9:47 AM 41.0 °F 34.7 °F 26.6 °F 57% 30.03 in 10.0 mi NW 10.4 mph - N/A   Clear
10:47 AM 44.6 °F 39.2 °F 26.6 °F 49% 30.07 in 10.0 mi NW 10.4 mph - N/A   Clear
11:47 AM 46.4 °F 41.5 °F 24.8 °F 43% 30.06 in 10.0 mi NW 10.4 mph - N/A   Partly Cloudy
12:47 PM 48.2 °F - 21.2 °F 34% 30.06 in 10.0 mi NW 10.4 mph - N/A   Partly Cloudy
1:47 PM 48.2 °F - 24.8 °F 40% 30.06 in 10.0 mi West 4.6 mph - N/A   Partly Cloudy
2:47 PM 51.8 °F - 26.6 °F 38% 30.05 in 10.0 mi NW 5.8 mph - N/A   Scattered Clouds
3:47 PM 51.8 °F - 28.4 °F 41% 30.05 in 10.0 mi NW 5.8 mph - N/A   Scattered Clouds
4:47 PM 51.8 °F - 26.6 °F 38% 30.04 in 10.0 mi WSW 5.8 mph - N/A   Mostly Cloudy
5:47 PM 51.8 °F - 28.4 °F 41% 30.05 in 10.0 mi West 8.1 mph - N/A   Mostly Cloudy
6:47 PM 51.8 °F - 28.4 °F 41% 30.06 in 10.0 mi West 6.9 mph - N/A   Mostly Cloudy
8:50 PM 46.4 °F 44.3 °F 30.2 °F 53% 30.11 in 10.0 mi SW 4.6 mph - N/A   Mostly Cloudy
9:50 PM 44.6 °F - 32.0 °F 61% 30.11 in 10.0 mi Calm Calm - N/A   Mostly Cloudy
10:47 PM 37.4 °F - 33.8 °F 87% 30.12 in 10.0 mi Calm Calm - N/A   Mostly Cloudy
11:15 PM 39.2 °F - 32.0 °F 75% 30.12 in 10.0 mi Calm Calm - N/A   Clear
11:35 PM 37.4 °F 34.9 °F 32.0 °F 81% 30.12 in 10.0 mi North 3.5 mph - N/A   Clear
11:55 PM 37.4 °F - 32.0 °F 81% 30.13 in 10.0 mi Calm Calm - N/A   Scattered Clouds